{"data":{"norad_id":53578,"intl_designator":"2022-101BD","name":"STARLINK-4556","alt_names":[],"object_type":"PAYLOAD","status":"ACTIVE","operator":null,"country":"US","launch_date":"2022-08-19","launch_site_code":"AFETR","launch_vehicle":null,"mission":null,"orbit_class":"UNKNOWN","rcs_meters":null,"size_class":null,"mass_kg":null,"dimensions":null,"purposes":["comms"],"wikipedia_slug":null,"has_3d_model":false,"image_url":null,"decayed_at":null,"tle_current":{"epoch":"2026-09-20T22:55:06.307968Z","epoch_age_seconds":39714,"freshness":"FRESH","line1":"1 53578U 22101BD  26263.95493412  .00000373  00000+0  22167-4 0  9994","line2":"2 53578  53.1581 241.4376 0001262  81.8428 278.2718 15.34392362226140","mean_motion":15.34392362,"eccentricity":0.0001262,"inclination_deg":53.1581,"raan_deg":241.4376,"arg_perigee_deg":81.8428,"mean_anomaly_deg":278.2718,"bstar":2.2167e-5,"rev_number":22614,"period_min":93.848225242925,"perigee_km":461.86262514363,"apogee_km":463.5892589502,"semimajor_km":6840.8629420469,"source":"CELESTRAK","updated_at":"2026-09-21T09:00:32.933339Z"}}}